sat.trackr.live / text

‹ back to catalog

STARLINK-33605

NORAD 63074 · 2025-035Y

PAYLOAD ACTIVE UNKNOWN

§ Identity

Operator
Country
US
Launch date
2025-02-21
Launch site
AFETR
Launch vehicle
Mass (kg)
RCS (m²)

Purposes: comms

External: N2YO · Heavens-Above · Gunter

§ Orbital elements

Epoch: 2026-09-20T21:07:13.063584Z

Period
94.27 min
Inclination
43.0028°
Eccentricity
0.0000754
Mean motion
15.27592894 rev/d
Perigee alt
482.5 km
Apogee alt
483.5 km
Semi-major
6,861.1 km
B*
4.8104e-4
RAAN
124.5602°
Arg perigee
279.7218°
Mean anomaly
80.3549°
Rev number
8,957

§ Raw data

STARLINK-336051 63074U 25035Y   26263.88001231  .00013004  00000+0  48104-3 0  99942 63074  43.0028 124.5602 0000754 279.7218  80.3549 15.27592894 89571

JSON: /api/v1/satellites/63074 · /tle

For live sub-satellite position, see the globe view (requires WebGL).

§ Visibility from observer

Set your observer location to see the next 7 days of passes ≥ 10°. The values pass through the URL so the page stays shareable.

No JS? Fill the form by hand. The geolocation button needs JavaScript.